owner,sensor,date,latitude,longitude,vertical_datum,mass_concentration_of_oxygen_in_sea_water,qcFlag 
TCOON,ioos:station:TCOON:072:1,2017-10-01T00:30:00Z,27.8392,-97.4440,1.0,9.86,1111122 
TCOON,ioos:station:TCOON:072:1,2017-10-01T01:30:00Z,27.8392,-97.4440,1.0,9.46,1111122 
TCOON,ioos:station:TCOON:072:1,2017-10-01T02:30:00Z,27.8392,-97.4440,1.0,9.23,1111122 
TCOON,ioos:station:TCOON:072:1,2017-10-01T03:30:00Z,27.8392,-97.4440,1.0,9.07,1111122 
TCOON,ioos:station:TCOON:072:1,2017-10-01T04:30:00Z,27.8392,-97.4440,1.0,8.93,1111122 
TCOON,ioos:station:TCOON:072:1,2017-10-01T05:30:00Z,27.8392,-97.4440,1.0,8.78,1111122 
TCOON,ioos:station:TCOON:072:1,2017-10-01T06:30:00Z,27.8392,-97.4440,1.0,8.48,1111122 
TCOON,ioos:station:TCOON:072:1,2017-10-01T07:30:00Z,27.8392,-97.4440,1.0,8.45,1111122 
TCOON,ioos:station:TCOON:072:1,2017-10-01T08:30:00Z,27.8392,-97.4440,1.0,8.27,1111122 
TCOON,ioos:station:TCOON:072:1,2017-10-01T09:30:00Z,27.8392,-97.4440,1.0,7.94,1111122 
TCOON,ioos:station:TCOON:072:1,2017-10-01T10:30:00Z,27.8392,-97.4440,1.0,7.8,1111122 
TCOON,ioos:station:TCOON:072:1,2017-10-01T11:30:00Z,27.8392,-97.4440,1.0,7.52,1111122 
TCOON,ioos:station:TCOON:072:1,2017-10-01T12:30:00Z,27.8392,-97.4440,1.0,7.39,1111122 
TCOON,ioos:station:TCOON:072:1,2017-10-01T13:30:00Z,27.8392,-97.4440,1.0,7.42,1111122 
TCOON,ioos:station:TCOON:072:1,2017-10-01T14:30:00Z,27.8392,-97.4440,1.0,7.54,1111122 
TCOON,ioos:station:TCOON:072:1,2017-10-01T15:30:00Z,27.8392,-97.4440,1.0,7.83,1111122 
TCOON,ioos:station:TCOON:072:1,2017-10-01T16:30:00Z,27.8392,-97.4440,1.0,7.66,1111122 
TCOON,ioos:station:TCOON:072:1,2017-10-01T17:30:00Z,27.8392,-97.4440,1.0,8.71,1111122 
TCOON,ioos:station:TCOON:072:1,2017-10-01T18:30:00Z,27.8392,-97.4440,1.0,8.63,1111122 
TCOON,ioos:station:TCOON:072:1,2017-10-01T19:30:00Z,27.8392,-97.4440,1.0,9.23,1111122 
TCOON,ioos:station:TCOON:072:1,2017-10-01T20:30:00Z,27.8392,-97.4440,1.0,9.56,1111122 
TCOON,ioos:station:TCOON:072:1,2017-10-01T21:30:00Z,27.8392,-97.4440,1.0,9.82,1111122 
TCOON,ioos:station:TCOON:072:1,2017-10-01T22:30:00Z,27.8392,-97.4440,1.0,10.0,1111122 
TCOON,ioos:station:TCOON:072:1,2017-10-01T23:30:00Z,27.8392,-97.4440,1.0,10.01,1111122 
TCOON,ioos:station:TCOON:072:1,2017-10-02T00:30:00Z,27.8392,-97.4440,1.0,9.83,1111122 
TCOON,ioos:station:TCOON:072:1,2017-10-02T01:30:00Z,27.8392,-97.4440,1.0,9.54,1111122 
TCOON,ioos:station:TCOON:072:1,2017-10-02T02:30:00Z,27.8392,-97.4440,1.0,9.16,1111122 
TCOON,ioos:station:TCOON:072:1,2017-10-02T03:30:00Z,27.8392,-97.4440,1.0,9.01,1111122 
TCOON,ioos:station:TCOON:072:1,2017-10-02T04:30:00Z,27.8392,-97.4440,1.0,9.01,1111122 
TCOON,ioos:station:TCOON:072:1,2017-10-02T05:30:00Z,27.8392,-97.4440,1.0,8.85,1111122 
TCOON,ioos:station:TCOON:072:1,2017-10-02T07:00:00Z,27.8392,-97.4440,1.0,8.24,1111122 
TCOON,ioos:station:TCOON:072:1,2017-10-02T07:30:00Z,27.8392,-97.4440,1.0,7.88,1111122 
TCOON,ioos:station:TCOON:072:1,2017-10-02T08:30:00Z,27.8392,-97.4440,1.0,7.68,1111122 
TCOON,ioos:station:TCOON:072:1,2017-10-02T09:30:00Z,27.8392,-97.4440,1.0,7.62,1111122 
TCOON,ioos:station:TCOON:072:1,2017-10-02T10:30:00Z,27.8392,-97.4440,1.0,7.52,1111122 
TCOON,ioos:station:TCOON:072:1,2017-10-02T11:30:00Z,27.8392,-97.4440,1.0,7.3,1111122 
TCOON,ioos:station:TCOON:072:1,2017-10-02T12:30:00Z,27.8392,-97.4440,1.0,7.09,1111122 
TCOON,ioos:station:TCOON:072:1,2017-10-02T13:30:00Z,27.8392,-97.4440,1.0,7.14,1111122 
TCOON,ioos:station:TCOON:072:1,2017-10-02T14:30:00Z,27.8392,-97.4440,1.0,7.46,1111122 
TCOON,ioos:station:TCOON:072:1,2017-10-02T15:30:00Z,27.8392,-97.4440,1.0,7.81,1111122 
TCOON,ioos:station:TCOON:072:1,2017-10-02T16:30:00Z,27.8392,-97.4440,1.0,8.09,1111122 
TCOON,ioos:station:TCOON:072:1,2017-10-02T17:30:00Z,27.8392,-97.4440,1.0,8.7,1111122 
TCOON,ioos:station:TCOON:072:1,2017-10-02T18:30:00Z,27.8392,-97.4440,1.0,8.67,1111122 
TCOON,ioos:station:TCOON:072:1,2017-10-02T19:30:00Z,27.8392,-97.4440,1.0,8.99,1111122 
TCOON,ioos:station:TCOON:072:1,2017-10-02T20:30:00Z,27.8392,-97.4440,1.0,9.09,1111122 
TCOON,ioos:station:TCOON:072:1,2017-10-02T21:30:00Z,27.8392,-97.4440,1.0,8.98,1111122 
TCOON,ioos:station:TCOON:072:1,2017-10-02T22:30:00Z,27.8392,-97.4440,1.0,9.2,1111122 
TCOON,ioos:station:TCOON:072:1,2017-10-02T23:30:00Z,27.8392,-97.4440,1.0,8.98,1111122 
TCOON,ioos:station:TCOON:072:1,2017-10-03T00:30:00Z,27.8392,-97.4440,1.0,8.73,1111122 
TCOON,ioos:station:TCOON:072:1,2017-10-03T01:30:00Z,27.8392,-97.4440,1.0,8.44,1111122 
TCOON,ioos:station:TCOON:072:1,2017-10-03T02:30:00Z,27.8392,-97.4440,1.0,8.28,1111122 
TCOON,ioos:station:TCOON:072:1,2017-10-03T03:30:00Z,27.8392,-97.4440,1.0,8.01,1111122 
TCOON,ioos:station:TCOON:072:1,2017-10-03T04:30:00Z,27.8392,-97.4440,1.0,7.76,1111122 
TCOON,ioos:station:TCOON:072:1,2017-10-03T05:30:00Z,27.8392,-97.4440,1.0,7.56,1111122 
TCOON,ioos:station:TCOON:072:1,2017-10-03T06:30:00Z,27.8392,-97.4440,1.0,7.39,1111122 
TCOON,ioos:station:TCOON:072:1,2017-10-03T07:30:00Z,27.8392,-97.4440,1.0,7.22,1111122 
TCOON,ioos:station:TCOON:072:1,2017-10-03T08:30:00Z,27.8392,-97.4440,1.0,7.11,1111122 
TCOON,ioos:station:TCOON:072:1,2017-10-03T09:30:00Z,27.8392,-97.4440,1.0,6.82,1111122 
TCOON,ioos:station:TCOON:072:1,2017-10-03T11:30:00Z,27.8392,-97.4440,1.0,6.66,1111122 
TCOON,ioos:station:TCOON:072:1,2017-10-03T12:30:00Z,27.8392,-97.4440,1.0,6.45,1111122 
TCOON,ioos:station:TCOON:072:1,2017-10-03T13:30:00Z,27.8392,-97.4440,1.0,6.45,1111122 
TCOON,ioos:station:TCOON:072:1,2017-10-03T14:30:00Z,27.8392,-97.4440,1.0,6.38,1111122 
TCOON,ioos:station:TCOON:072:1,2017-10-03T15:30:00Z,27.8392,-97.4440,1.0,6.52,1111122 
TCOON,ioos:station:TCOON:072:1,2017-10-03T16:30:00Z,27.8392,-97.4440,1.0,7.18,1111122 
TCOON,ioos:station:TCOON:072:1,2017-10-03T17:30:00Z,27.8392,-97.4440,1.0,7.31,1111122 
TCOON,ioos:station:TCOON:072:1,2017-10-03T18:30:00Z,27.8392,-97.4440,1.0,7.25,1111122 
TCOON,ioos:station:TCOON:072:1,2017-10-03T19:30:00Z,27.8392,-97.4440,1.0,7.45,1111122 
TCOON,ioos:station:TCOON:072:1,2017-10-03T20:30:00Z,27.8392,-97.4440,1.0,7.58,1111122 
TCOON,ioos:station:TCOON:072:1,2017-10-03T21:30:00Z,27.8392,-97.4440,1.0,7.64,1111122 
TCOON,ioos:station:TCOON:072:1,2017-10-03T22:30:00Z,27.8392,-97.4440,1.0,7.67,1111122 
TCOON,ioos:station:TCOON:072:1,2017-10-03T23:30:00Z,27.8392,-97.4440,1.0,7.43,1111122 
TCOON,ioos:station:TCOON:072:1,2017-10-04T00:30:00Z,27.8392,-97.4440,1.0,7.17,1111122 
TCOON,ioos:station:TCOON:072:1,2017-10-04T01:30:00Z,27.8392,-97.4440,1.0,7.08,1111122 
TCOON,ioos:station:TCOON:072:1,2017-10-04T02:30:00Z,27.8392,-97.4440,1.0,7.07,1111122 
TCOON,ioos:station:TCOON:072:1,2017-10-04T03:30:00Z,27.8392,-97.4440,1.0,6.79,1111122 
TCOON,ioos:station:TCOON:072:1,2017-10-04T04:30:00Z,27.8392,-97.4440,1.0,6.83,1111122 
TCOON,ioos:station:TCOON:072:1,2017-10-04T05:30:00Z,27.8392,-97.4440,1.0,6.68,1111122 
TCOON,ioos:station:TCOON:072:1,2017-10-04T06:30:00Z,27.8392,-97.4440,1.0,6.25,1111122 
TCOON,ioos:station:TCOON:072:1,2017-10-04T07:30:00Z,27.8392,-97.4440,1.0,6.14,1111122 
TCOON,ioos:station:TCOON:072:1,2017-10-04T08:30:00Z,27.8392,-97.4440,1.0,6.28,1111122 
TCOON,ioos:station:TCOON:072:1,2017-10-04T09:30:00Z,27.8392,-97.4440,1.0,6.07,1111122 
TCOON,ioos:station:TCOON:072:1,2017-10-04T11:30:00Z,27.8392,-97.4440,1.0,5.91,1111122 
TCOON,ioos:station:TCOON:072:1,2017-10-04T12:30:00Z,27.8392,-97.4440,1.0,5.52,1111122 
TCOON,ioos:station:TCOON:072:1,2017-10-04T13:30:00Z,27.8392,-97.4440,1.0,5.42,1111122 
TCOON,ioos:station:TCOON:072:1,2017-10-04T14:30:00Z,27.8392,-97.4440,1.0,5.83,1111122 
TCOON,ioos:station:TCOON:072:1,2017-10-04T15:30:00Z,27.8392,-97.4440,1.0,6.03,1111122 
TCOON,ioos:station:TCOON:072:1,2017-10-04T16:30:00Z,27.8392,-97.4440,1.0,6.05,1111122 
TCOON,ioos:station:TCOON:072:1,2017-10-04T17:30:00Z,27.8392,-97.4440,1.0,6.37,1111122 
TCOON,ioos:station:TCOON:072:1,2017-10-04T18:30:00Z,27.8392,-97.4440,1.0,6.75,1111122 
TCOON,ioos:station:TCOON:072:1,2017-10-04T19:30:00Z,27.8392,-97.4440,1.0,6.86,1111122 
TCOON,ioos:station:TCOON:072:1,2017-10-04T20:30:00Z,27.8392,-97.4440,1.0,7.29,1111122 
TCOON,ioos:station:TCOON:072:1,2017-10-04T21:30:00Z,27.8392,-97.4440,1.0,7.65,1111122 
TCOON,ioos:station:TCOON:072:1,2017-10-04T22:30:00Z,27.8392,-97.4440,1.0,7.6,1111122 
TCOON,ioos:station:TCOON:072:1,2017-10-04T23:30:00Z,27.8392,-97.4440,1.0,7.47,1111122 
TCOON,ioos:station:TCOON:072:1,2017-10-05T00:30:00Z,27.8392,-97.4440,1.0,7.53,1111122 
TCOON,ioos:station:TCOON:072:1,2017-10-05T01:30:00Z,27.8392,-97.4440,1.0,7.1,1111122 
TCOON,ioos:station:TCOON:072:1,2017-10-05T02:30:00Z,27.8392,-97.4440,1.0,7.26,1111122 
TCOON,ioos:station:TCOON:072:1,2017-10-05T03:30:00Z,27.8392,-97.4440,1.0,6.87,1111122 
TCOON,ioos:station:TCOON:072:1,2017-10-05T04:30:00Z,27.8392,-97.4440,1.0,6.73,1111122 
TCOON,ioos:station:TCOON:072:1,2017-10-05T05:30:00Z,27.8392,-97.4440,1.0,6.26,1111122 
TCOON,ioos:station:TCOON:072:1,2017-10-05T06:30:00Z,27.8392,-97.4440,1.0,6.3,1111122 
TCOON,ioos:station:TCOON:072:1,2017-10-05T07:30:00Z,27.8392,-97.4440,1.0,6.09,1111122 
TCOON,ioos:station:TCOON:072:1,2017-10-05T08:30:00Z,27.8392,-97.4440,1.0,6.09,1111122 
TCOON,ioos:station:TCOON:072:1,2017-10-05T09:30:00Z,27.8392,-97.4440,1.0,6.08,1111122 
TCOON,ioos:station:TCOON:072:1,2017-10-05T10:30:00Z,27.8392,-97.4440,1.0,5.97,1111122 
TCOON,ioos:station:TCOON:072:1,2017-10-05T11:30:00Z,27.8392,-97.4440,1.0,6.01,1111122 
TCOON,ioos:station:TCOON:072:1,2017-10-05T12:30:00Z,27.8392,-97.4440,1.0,5.71,1111122 
TCOON,ioos:station:TCOON:072:1,2017-10-05T13:30:00Z,27.8392,-97.4440,1.0,5.22,1111122 
TCOON,ioos:station:TCOON:072:1,2017-10-05T14:30:00Z,27.8392,-97.4440,1.0,5.66,1111122 
TCOON,ioos:station:TCOON:072:1,2017-10-05T15:30:00Z,27.8392,-97.4440,1.0,5.59,1111122 
TCOON,ioos:station:TCOON:072:1,2017-10-05T16:30:00Z,27.8392,-97.4440,1.0,6.17,1111122 
TCOON,ioos:station:TCOON:072:1,2017-10-05T17:30:00Z,27.8392,-97.4440,1.0,6.7,1111122 
TCOON,ioos:station:TCOON:072:1,2017-10-05T18:30:00Z,27.8392,-97.4440,1.0,6.92,1111122 
TCOON,ioos:station:TCOON:072:1,2017-10-05T19:30:00Z,27.8392,-97.4440,1.0,7.16,1111122 
TCOON,ioos:station:TCOON:072:1,2017-10-05T20:30:00Z,27.8392,-97.4440,1.0,7.11,1111122 
TCOON,ioos:station:TCOON:072:1,2017-10-05T21:30:00Z,27.8392,-97.4440,1.0,6.94,1111122 
TCOON,ioos:station:TCOON:072:1,2017-10-05T22:30:00Z,27.8392,-97.4440,1.0,7.24,1111122 
TCOON,ioos:station:TCOON:072:1,2017-10-05T23:30:00Z,27.8392,-97.4440,1.0,7.45,1111122 
TCOON,ioos:station:TCOON:072:1,2017-10-06T00:30:00Z,27.8392,-97.4440,1.0,7.64,1111122 
TCOON,ioos:station:TCOON:072:1,2017-10-06T01:30:00Z,27.8392,-97.4440,1.0,6.72,1111122 
TCOON,ioos:station:TCOON:072:1,2017-10-06T02:30:00Z,27.8392,-97.4440,1.0,7.36,1111122 
TCOON,ioos:station:TCOON:072:1,2017-10-06T03:30:00Z,27.8392,-97.4440,1.0,7.14,1111122 
TCOON,ioos:station:TCOON:072:1,2017-10-06T04:30:00Z,27.8392,-97.4440,1.0,6.85,1111122 
TCOON,ioos:station:TCOON:072:1,2017-10-06T05:30:00Z,27.8392,-97.4440,1.0,6.36,1111122 
TCOON,ioos:station:TCOON:072:1,2017-10-06T06:30:00Z,27.8392,-97.4440,1.0,6.51,1111122 
TCOON,ioos:station:TCOON:072:1,2017-10-06T07:30:00Z,27.8392,-97.4440,1.0,5.95,1111122 
TCOON,ioos:station:TCOON:072:1,2017-10-06T08:30:00Z,27.8392,-97.4440,1.0,6.13,1111122 
TCOON,ioos:station:TCOON:072:1,2017-10-06T09:30:00Z,27.8392,-97.4440,1.0,4.54,1111122 
TCOON,ioos:station:TCOON:072:1,2017-10-06T10:30:00Z,27.8392,-97.4440,1.0,3.74,1111122 
TCOON,ioos:station:TCOON:072:1,2017-10-06T11:30:00Z,27.8392,-97.4440,1.0,4.13,1111122 
TCOON,ioos:station:TCOON:072:1,2017-10-06T12:30:00Z,27.8392,-97.4440,1.0,4.63,1111122 
TCOON,ioos:station:TCOON:072:1,2017-10-06T13:30:00Z,27.8392,-97.4440,1.0,3.97,1111122 
TCOON,ioos:station:TCOON:072:1,2017-10-06T14:30:00Z,27.8392,-97.4440,1.0,5.24,1111122 
TCOON,ioos:station:TCOON:072:1,2017-10-06T15:30:00Z,27.8392,-97.4440,1.0,6.35,1111122 
TCOON,ioos:station:TCOON:072:1,2017-10-06T16:30:00Z,27.8392,-97.4440,1.0,6.51,1111122 
TCOON,ioos:station:TCOON:072:1,2017-10-06T17:30:00Z,27.8392,-97.4440,1.0,7.01,1111122 
TCOON,ioos:station:TCOON:072:1,2017-10-06T18:30:00Z,27.8392,-97.4440,1.0,7.42,1111122 
TCOON,ioos:station:TCOON:072:1,2017-10-06T19:30:00Z,27.8392,-97.4440,1.0,6.44,1111122 
TCOON,ioos:station:TCOON:072:1,2017-10-06T20:30:00Z,27.8392,-97.4440,1.0,6.6,1111122 
TCOON,ioos:station:TCOON:072:1,2017-10-06T21:30:00Z,27.8392,-97.4440,1.0,7.78,1111122 
TCOON,ioos:station:TCOON:072:1,2017-10-06T22:30:00Z,27.8392,-97.4440,1.0,8.17,1111122 
TCOON,ioos:station:TCOON:072:1,2017-10-06T23:30:00Z,27.8392,-97.4440,1.0,8.2,1111122 
TCOON,ioos:station:TCOON:072:1,2017-10-07T00:30:00Z,27.8392,-97.4440,1.0,8.04,1111122 
TCOON,ioos:station:TCOON:072:1,2017-10-07T01:30:00Z,27.8392,-97.4440,1.0,7.75,1111122 
TCOON,ioos:station:TCOON:072:1,2017-10-07T02:30:00Z,27.8392,-97.4440,1.0,7.2,1111122 
TCOON,ioos:station:TCOON:072:1,2017-10-07T03:30:00Z,27.8392,-97.4440,1.0,7.25,1111122 
TCOON,ioos:station:TCOON:072:1,2017-10-07T04:30:00Z,27.8392,-97.4440,1.0,7.1,1111122 
TCOON,ioos:station:TCOON:072:1,2017-10-07T05:30:00Z,27.8392,-97.4440,1.0,7.22,1111122 
TCOON,ioos:station:TCOON:072:1,2017-10-07T06:30:00Z,27.8392,-97.4440,1.0,7.47,1111122 
TCOON,ioos:station:TCOON:072:1,2017-10-07T07:30:00Z,27.8392,-97.4440,1.0,7.38,1111122 
TCOON,ioos:station:TCOON:072:1,2017-10-07T08:30:00Z,27.8392,-97.4440,1.0,7.19,1111122 
TCOON,ioos:station:TCOON:072:1,2017-10-07T09:30:00Z,27.8392,-97.4440,1.0,6.91,1111122 
TCOON,ioos:station:TCOON:072:1,2017-10-07T10:30:00Z,27.8392,-97.4440,1.0,6.36,1111122 
TCOON,ioos:station:TCOON:072:1,2017-10-07T11:30:00Z,27.8392,-97.4440,1.0,5.32,1111122 
TCOON,ioos:station:TCOON:072:1,2017-10-07T12:30:00Z,27.8392,-97.4440,1.0,5.62,1111122 
TCOON,ioos:station:TCOON:072:1,2017-10-07T13:30:00Z,27.8392,-97.4440,1.0,6.01,1111122 
TCOON,ioos:station:TCOON:072:1,2017-10-07T14:30:00Z,27.8392,-97.4440,1.0,6.47,1111122 
TCOON,ioos:station:TCOON:072:1,2017-10-07T15:30:00Z,27.8392,-97.4440,1.0,6.77,1111122 
TCOON,ioos:station:TCOON:072:1,2017-10-07T16:30:00Z,27.8392,-97.4440,1.0,7.09,1111122 
TCOON,ioos:station:TCOON:072:1,2017-10-07T17:30:00Z,27.8392,-97.4440,1.0,7.46,1111122 
TCOON,ioos:station:TCOON:072:1,2017-10-07T18:30:00Z,27.8392,-97.4440,1.0,7.71,1111122 
TCOON,ioos:station:TCOON:072:1,2017-10-07T19:30:00Z,27.8392,-97.4440,1.0,7.53,1111122 
TCOON,ioos:station:TCOON:072:1,2017-10-07T20:30:00Z,27.8392,-97.4440,1.0,7.94,1111122 
TCOON,ioos:station:TCOON:072:1,2017-10-07T21:30:00Z,27.8392,-97.4440,1.0,8.38,1111122 
TCOON,ioos:station:TCOON:072:1,2017-10-07T22:30:00Z,27.8392,-97.4440,1.0,7.95,1111122 
TCOON,ioos:station:TCOON:072:1,2017-10-07T23:30:00Z,27.8392,-97.4440,1.0,8.5,1111122 
TCOON,ioos:station:TCOON:072:1,2017-10-08T00:30:00Z,27.8392,-97.4440,1.0,8.03,1111122 
TCOON,ioos:station:TCOON:072:1,2017-10-08T01:30:00Z,27.8392,-97.4440,1.0,7.34,1111122 
TCOON,ioos:station:TCOON:072:1,2017-10-08T02:30:00Z,27.8392,-97.4440,1.0,6.88,1111122 
TCOON,ioos:station:TCOON:072:1,2017-10-08T03:30:00Z,27.8392,-97.4440,1.0,5.59,1111122 
TCOON,ioos:station:TCOON:072:1,2017-10-08T04:30:00Z,27.8392,-97.4440,1.0,5.08,1111122 
TCOON,ioos:station:TCOON:072:1,2017-10-08T05:30:00Z,27.8392,-97.4440,1.0,5.6,1111122 
TCOON,ioos:station:TCOON:072:1,2017-10-08T06:30:00Z,27.8392,-97.4440,1.0,4.41,1111122 
TCOON,ioos:station:TCOON:072:1,2017-10-08T07:30:00Z,27.8392,-97.4440,1.0,5.05,1111122 
TCOON,ioos:station:TCOON:072:1,2017-10-08T08:30:00Z,27.8392,-97.4440,1.0,6.36,1111122 
TCOON,ioos:station:TCOON:072:1,2017-10-08T09:30:00Z,27.8392,-97.4440,1.0,5.94,1111122 
TCOON,ioos:station:TCOON:072:1,2017-10-08T10:30:00Z,27.8392,-97.4440,1.0,5.89,1111122 
TCOON,ioos:station:TCOON:072:1,2017-10-08T11:30:00Z,27.8392,-97.4440,1.0,5.89,1111122 
TCOON,ioos:station:TCOON:072:1,2017-10-08T12:30:00Z,27.8392,-97.4440,1.0,6.76,1111122 
TCOON,ioos:station:TCOON:072:1,2017-10-08T13:30:00Z,27.8392,-97.4440,1.0,6.8,1111122 
TCOON,ioos:station:TCOON:072:1,2017-10-08T14:30:00Z,27.8392,-97.4440,1.0,6.89,1111122 
TCOON,ioos:station:TCOON:072:1,2017-10-08T15:30:00Z,27.8392,-97.4440,1.0,7.26,1111122 
TCOON,ioos:station:TCOON:072:1,2017-10-08T16:30:00Z,27.8392,-97.4440,1.0,7.29,1111122 
TCOON,ioos:station:TCOON:072:1,2017-10-08T17:30:00Z,27.8392,-97.4440,1.0,7.27,1111122 
TCOON,ioos:station:TCOON:072:1,2017-10-08T18:30:00Z,27.8392,-97.4440,1.0,7.74,1111122 
TCOON,ioos:station:TCOON:072:1,2017-10-08T19:30:00Z,27.8392,-97.4440,1.0,7.94,1111122 
TCOON,ioos:station:TCOON:072:1,2017-10-08T20:30:00Z,27.8392,-97.4440,1.0,7.92,1111122 
TCOON,ioos:station:TCOON:072:1,2017-10-08T21:30:00Z,27.8392,-97.4440,1.0,7.94,1111122 
TCOON,ioos:station:TCOON:072:1,2017-10-08T22:30:00Z,27.8392,-97.4440,1.0,8.02,1111122 
TCOON,ioos:station:TCOON:072:1,2017-10-08T23:30:00Z,27.8392,-97.4440,1.0,7.79,1111122 
TCOON,ioos:station:TCOON:072:1,2017-10-09T00:30:00Z,27.8392,-97.4440,1.0,7.43,1111122 
TCOON,ioos:station:TCOON:072:1,2017-10-09T01:30:00Z,27.8392,-97.4440,1.0,6.9,1111122 
TCOON,ioos:station:TCOON:072:1,2017-10-09T02:30:00Z,27.8392,-97.4440,1.0,6.39,1111122 
TCOON,ioos:station:TCOON:072:1,2017-10-09T03:30:00Z,27.8392,-97.4440,1.0,6.7,1111122 
TCOON,ioos:station:TCOON:072:1,2017-10-09T04:30:00Z,27.8392,-97.4440,1.0,6.14,1111122 
TCOON,ioos:station:TCOON:072:1,2017-10-09T05:30:00Z,27.8392,-97.4440,1.0,7.23,1111122 
TCOON,ioos:station:TCOON:072:1,2017-10-09T06:30:00Z,27.8392,-97.4440,1.0,6.54,1111122 
TCOON,ioos:station:TCOON:072:1,2017-10-09T07:30:00Z,27.8392,-97.4440,1.0,5.94,1111122 
TCOON,ioos:station:TCOON:072:1,2017-10-09T08:30:00Z,27.8392,-97.4440,1.0,6.02,1111122 
TCOON,ioos:station:TCOON:072:1,2017-10-09T09:30:00Z,27.8392,-97.4440,1.0,5.77,1111122 
TCOON,ioos:station:TCOON:072:1,2017-10-09T10:30:00Z,27.8392,-97.4440,1.0,6.04,1111122 
TCOON,ioos:station:TCOON:072:1,2017-10-09T11:30:00Z,27.8392,-97.4440,1.0,5.57,1111122 
TCOON,ioos:station:TCOON:072:1,2017-10-09T12:30:00Z,27.8392,-97.4440,1.0,5.28,1111122 
TCOON,ioos:station:TCOON:072:1,2017-10-09T13:30:00Z,27.8392,-97.4440,1.0,5.46,1111122 
TCOON,ioos:station:TCOON:072:1,2017-10-09T14:30:00Z,27.8392,-97.4440,1.0,4.88,1111122 
TCOON,ioos:station:TCOON:072:1,2017-10-09T15:30:00Z,27.8392,-97.4440,1.0,5.62,1111122 
TCOON,ioos:station:TCOON:072:1,2017-10-09T16:30:00Z,27.8392,-97.4440,1.0,6.62,1111122 
TCOON,ioos:station:TCOON:072:1,2017-10-09T17:30:00Z,27.8392,-97.4440,1.0,7.1,1111122 
TCOON,ioos:station:TCOON:072:1,2017-10-09T18:30:00Z,27.8392,-97.4440,1.0,7.38,1111122 
TCOON,ioos:station:TCOON:072:1,2017-10-09T19:30:00Z,27.8392,-97.4440,1.0,7.29,1111122 
TCOON,ioos:station:TCOON:072:1,2017-10-09T20:30:00Z,27.8392,-97.4440,1.0,7.76,1111122 
TCOON,ioos:station:TCOON:072:1,2017-10-09T21:30:00Z,27.8392,-97.4440,1.0,7.69,1111122 
TCOON,ioos:station:TCOON:072:1,2017-10-09T22:30:00Z,27.8392,-97.4440,1.0,7.82,1111122 
TCOON,ioos:station:TCOON:072:1,2017-10-09T23:30:00Z,27.8392,-97.4440,1.0,7.64,1111122 
TCOON,ioos:station:TCOON:072:1,2017-10-10T00:30:00Z,27.8392,-97.4440,1.0,7.65,1111122 
TCOON,ioos:station:TCOON:072:1,2017-10-10T01:30:00Z,27.8392,-97.4440,1.0,7.25,1111122 
TCOON,ioos:station:TCOON:072:1,2017-10-10T02:30:00Z,27.8392,-97.4440,1.0,6.75,1111122 
TCOON,ioos:station:TCOON:072:1,2017-10-10T03:30:00Z,27.8392,-97.4440,1.0,6.58,1111122 
TCOON,ioos:station:TCOON:072:1,2017-10-10T04:30:00Z,27.8392,-97.4440,1.0,6.27,1111122 
TCOON,ioos:station:TCOON:072:1,2017-10-10T05:30:00Z,27.8392,-97.4440,1.0,6.65,1111122 
TCOON,ioos:station:TCOON:072:1,2017-10-10T06:30:00Z,27.8392,-97.4440,1.0,6.28,1111122 
TCOON,ioos:station:TCOON:072:1,2017-10-10T07:30:00Z,27.8392,-97.4440,1.0,6.15,1111122 
TCOON,ioos:station:TCOON:072:1,2017-10-10T08:30:00Z,27.8392,-97.4440,1.0,6.37,1111122 
TCOON,ioos:station:TCOON:072:1,2017-10-10T09:30:00Z,27.8392,-97.4440,1.0,6.21,1111122 
TCOON,ioos:station:TCOON:072:1,2017-10-10T10:30:00Z,27.8392,-97.4440,1.0,6.06,1111122 
TCOON,ioos:station:TCOON:072:1,2017-10-10T11:30:00Z,27.8392,-97.4440,1.0,5.94,1111122 
TCOON,ioos:station:TCOON:072:1,2017-10-10T12:30:00Z,27.8392,-97.4440,1.0,5.62,1111122 
TCOON,ioos:station:TCOON:072:1,2017-10-10T13:30:00Z,27.8392,-97.4440,1.0,5.37,1111122 
TCOON,ioos:station:TCOON:072:1,2017-10-10T14:30:00Z,27.8392,-97.4440,1.0,5.28,1111122 
TCOON,ioos:station:TCOON:072:1,2017-10-10T15:30:00Z,27.8392,-97.4440,1.0,5.95,1111122 
TCOON,ioos:station:TCOON:072:1,2017-10-10T16:30:00Z,27.8392,-97.4440,1.0,6.44,1111122 
TCOON,ioos:station:TCOON:072:1,2017-10-10T17:30:00Z,27.8392,-97.4440,1.0,6.13,1111122 
TCOON,ioos:station:TCOON:072:1,2017-10-10T18:30:00Z,27.8392,-97.4440,1.0,5.98,1111122 
TCOON,ioos:station:TCOON:072:1,2017-10-10T19:30:00Z,27.8392,-97.4440,1.0,5.87,1111122 
TCOON,ioos:station:TCOON:072:1,2017-10-10T20:30:00Z,27.8392,-97.4440,1.0,5.87,1111122 
TCOON,ioos:station:TCOON:072:1,2017-10-10T21:30:00Z,27.8392,-97.4440,1.0,6.13,1111122 
TCOON,ioos:station:TCOON:072:1,2017-10-10T22:30:00Z,27.8392,-97.4440,1.0,5.97,1111122 
TCOON,ioos:station:TCOON:072:1,2017-10-10T23:30:00Z,27.8392,-97.4440,1.0,5.21,1111122 
TCOON,ioos:station:TCOON:072:1,2017-10-11T00:30:00Z,27.8392,-97.4440,1.0,5.11,1111122 
TCOON,ioos:station:TCOON:072:1,2017-10-11T01:30:00Z,27.8392,-97.4440,1.0,5.02,1111122 
TCOON,ioos:station:TCOON:072:1,2017-10-11T02:30:00Z,27.8392,-97.4440,1.0,5.16,1111122 
TCOON,ioos:station:TCOON:072:1,2017-10-11T03:30:00Z,27.8392,-97.4440,1.0,5.27,1111122 
TCOON,ioos:station:TCOON:072:1,2017-10-11T04:30:00Z,27.8392,-97.4440,1.0,5.64,1111122 
TCOON,ioos:station:TCOON:072:1,2017-10-11T05:30:00Z,27.8392,-97.4440,1.0,5.7,1111122 
TCOON,ioos:station:TCOON:072:1,2017-10-11T06:30:00Z,27.8392,-97.4440,1.0,5.74,1111122 
TCOON,ioos:station:TCOON:072:1,2017-10-11T07:30:00Z,27.8392,-97.4440,1.0,5.11,1111122 
TCOON,ioos:station:TCOON:072:1,2017-10-11T08:30:00Z,27.8392,-97.4440,1.0,6.1,1111122 
TCOON,ioos:station:TCOON:072:1,2017-10-11T09:30:00Z,27.8392,-97.4440,1.0,5.76,1111122 
TCOON,ioos:station:TCOON:072:1,2017-10-11T10:30:00Z,27.8392,-97.4440,1.0,4.95,1111122 
TCOON,ioos:station:TCOON:072:1,2017-10-11T11:30:00Z,27.8392,-97.4440,1.0,4.93,1111122 
TCOON,ioos:station:TCOON:072:1,2017-10-11T12:30:00Z,27.8392,-97.4440,1.0,4.92,1111122 
TCOON,ioos:station:TCOON:072:1,2017-10-11T13:30:00Z,27.8392,-97.4440,1.0,4.84,1111122 
TCOON,ioos:station:TCOON:072:1,2017-10-11T14:30:00Z,27.8392,-97.4440,1.0,5.24,1111122 
TCOON,ioos:station:TCOON:072:1,2017-10-11T15:30:00Z,27.8392,-97.4440,1.0,5.46,1111122 
TCOON,ioos:station:TCOON:072:1,2017-10-11T16:30:00Z,27.8392,-97.4440,1.0,5.49,1111122 
TCOON,ioos:station:TCOON:072:1,2017-10-11T17:30:00Z,27.8392,-97.4440,1.0,6.12,1111122 
TCOON,ioos:station:TCOON:072:1,2017-10-11T18:30:00Z,27.8392,-97.4440,1.0,6.69,1111122 
TCOON,ioos:station:TCOON:072:1,2017-10-11T19:30:00Z,27.8392,-97.4440,1.0,7.22,1111122 
TCOON,ioos:station:TCOON:072:1,2017-10-11T20:30:00Z,27.8392,-97.4440,1.0,6.66,1111122 
TCOON,ioos:station:TCOON:072:1,2017-10-11T21:30:00Z,27.8392,-97.4440,1.0,6.53,1111122 
TCOON,ioos:station:TCOON:072:1,2017-10-11T22:30:00Z,27.8392,-97.4440,1.0,6.95,1111122 
TCOON,ioos:station:TCOON:072:1,2017-10-11T23:30:00Z,27.8392,-97.4440,1.0,6.77,1111122 
TCOON,ioos:station:TCOON:072:1,2017-10-12T00:30:00Z,27.8392,-97.4440,1.0,6.09,1111122 
TCOON,ioos:station:TCOON:072:1,2017-10-12T01:30:00Z,27.8392,-97.4440,1.0,5.48,1111122 
TCOON,ioos:station:TCOON:072:1,2017-10-12T02:30:00Z,27.8392,-97.4440,1.0,5.53,1111122 
TCOON,ioos:station:TCOON:072:1,2017-10-12T03:30:00Z,27.8392,-97.4440,1.0,6.67,1111122 
TCOON,ioos:station:TCOON:072:1,2017-10-12T04:30:00Z,27.8392,-97.4440,1.0,6.71,1111122 
TCOON,ioos:station:TCOON:072:1,2017-10-12T05:30:00Z,27.8392,-97.4440,1.0,6.57,1111122 
TCOON,ioos:station:TCOON:072:1,2017-10-12T06:30:00Z,27.8392,-97.4440,1.0,6.94,1111122 
TCOON,ioos:station:TCOON:072:1,2017-10-12T07:30:00Z,27.8392,-97.4440,1.0,6.97,1111122 
TCOON,ioos:station:TCOON:072:1,2017-10-12T08:30:00Z,27.8392,-97.4440,1.0,5.91,1111122 
TCOON,ioos:station:TCOON:072:1,2017-10-12T09:30:00Z,27.8392,-97.4440,1.0,5.65,1111122 
TCOON,ioos:station:TCOON:072:1,2017-10-12T10:30:00Z,27.8392,-97.4440,1.0,6.06,1111122 
TCOON,ioos:station:TCOON:072:1,2017-10-12T11:30:00Z,27.8392,-97.4440,1.0,4.48,1111122 